Location: Shepherdstown, WV
(39.4326°N, 77.8042°W)
Time: 05:13:27
(UTC-04:00)

SR - Pass Details

Date: 05 August 2021
Orbit: 581 x 874 km, 66.7° (Epoch: 24 September)

Event Time Altitude Azimuth Distance (km) Brightness Sun altitude
Rises 15:09:05 0° 331° (NNW) 3,055 ? 56.7°
Reaches altitude 10° 15:11:30 10° 332° (NNW) 2,089 ? 56.4°
Maximum altitude 15:16:12 88° 60° (ENE) 633 ? 55.6°
Drops below altitude 10° 15:20:33 10° 152° (SSE) 1,937 ? 54.9°
Sets 15:22:43 0° 152° (SSE) 2,813 ? 54.5°
